Temp
68 65 67 67 64 64 65 65 67 67 68 69 69 68 68 66 66 67 67 66 66 65
69 68 68 68 66 64 67 67 68 68 68 69 69 68 67 67 67 68 66 66 65 64
70 72 70 69 68 64 67 68 67 68 67 68 68 68 68 67 68 67 65 65 64 63
74 75 71 68 70 64 66 68 68 68 68 68 68 67 67 67 67 66 65 64 62 62
75 74 70 68 69 66 66 69 70 71 70 68 69 68 67 67 67 65 64 63 62 61
73 71 71 69 68 66 65 67 71 71 71 70 69 68 68 69 67 65 64 63 62 61
73 72 73 72 70 69 69 66 67 69 72 70 70 70 70 69 66 65 65 63 63 62
74 75 75 74 74 71 70 69 68 70 72 70 69 69 68 68 66 65 65 65 64 63
75 76 73 74 74 72 72 72 71 69 70 67 66 52 57 66 66 65 64 64 64 62
75 75 74 75 74 72 71 72 69 68 67 65 63 52 54 59 67 65 64 65 65 68
77 75 75 73 72 71 71 70 69 68 67 65 61 55 54 61 69 68 68 68 67 65
78 75 74 72 70 70 70 70 70 70 68 64 64 55 54 65 69 69 69 68 68 68
80 76 74 72 70 70 71 71 73 71 70 64 63 50 52 58 70 67 67 65 62 53
78 74 73 71 71 70 70 71 70 70 70 69 65 58 51 50 65 67 66 66 64 59
MSLP
1008.46 1008.57 1008.52 1008.53 1008.62 1008.48 1008.39 1008.34 1008.43 1008.46 1008.45 1008.52 1008.65 1008.90 1009.03 1009.22 1009.55 1010.25 1010.76 1011.22 1011.77 1012.43
1008.39 1008.53 1008.68 1008.60 1008.52 1008.66 1008.49 1008.45 1008.50 1008.49 1008.44 1008.59 1008.88 1009.18 1009.55 1009.79 1010.31 1010.82 1011.28 1011.78 1012.38 1012.98
1008.17 1008.34 1008.45 1008.54 1008.57 1008.80 1008.62 1008.56 1008.62 1008.71 1008.63 1008.94 1009.17 1009.38 1009.85 1010.49 1010.95 1011.42 1012.12 1012.58 1013.09 1013.80
1007.99 1008.15 1008.43 1008.61 1008.72 1009.00 1008.81 1008.86 1008.83 1009.01 1009.07 1009.22 1009.54 1009.94 1010.19 1010.82 1011.44 1012.05 1012.71 1013.35 1013.70 1014.26
1008.02 1008.28 1008.76 1009.00 1009.01 1009.20 1009.37 1009.36 1009.21 1009.30 1009.43 1009.70 1010.04 1010.40 1010.70 1011.24 1011.86 1012.46 1013.25 1013.93 1014.48 1014.82
1008.21 1008.65 1008.84 1009.10 1009.34 1009.35 1009.61 1009.82 1009.68 1009.81 1009.77 1010.05 1010.27 1010.54 1010.99 1011.41 1012.14 1012.80 1013.44 1014.03 1014.41 1014.90
1008.33 1008.70 1008.79 1008.95 1009.34 1009.63 1009.93 1010.11 1010.33 1010.45 1010.19 1010.36 1010.67 1010.77 1011.31 1011.81 1012.41 1013.10 1013.84 1014.47 1014.54 1014.98
1008.40 1008.51 1008.67 1008.87 1009.09 1009.72 1010.11 1010.12 1010.57 1010.64 1010.66 1010.86 1011.20 1011.42 1011.64 1012.11 1012.71 1013.29 1014.02 1014.45 1014.92 1015.45
1008.43 1008.50 1008.78 1009.02 1009.33 1009.56 1009.80 1010.10 1010.35 1010.82 1011.11 1011.54 1011.92 1011.86 1012.02 1012.38 1012.88 1013.50 1014.06 1014.80 1015.34 1015.84
1008.31 1008.56 1008.92 1009.20 1009.50 1009.76 1010.01 1010.18 1010.87 1011.23 1011.68 1012.07 1012.25 1012.26 1012.52 1012.77 1013.26 1013.81 1014.29 1014.73 1015.33 1015.84
1008.04 1008.49 1008.92 1009.28 1009.66 1010.08 1010.28 1010.61 1011.03 1011.56 1012.08 1012.54 1012.91 1012.83 1012.96 1013.11 1013.43 1013.83 1014.18 1014.53 1014.89 1015.44
1007.56 1008.21 1008.80 1009.21 1009.74 1010.24 1010.57 1010.85 1011.16 1011.61 1012.22 1012.72 1013.18 1013.31 1013.43 1013.46 1013.72 1014.03 1014.29 1014.77 1015.12 1015.59
1007.11 1007.82 1008.56 1009.11 1009.69 1010.20 1010.58 1010.94 1011.15 1011.57 1012.03 1012.70 1013.27 1013.41 1013.60 1013.86 1014.00 1014.48 1014.78 1015.14 1015.56 1015.81
1006.66 1007.46 1008.28 1009.02 1009.63 1010.20 1010.61 1010.86 1011.11 1011.48 1011.92 1012.44 1013.11 1013.69 1013.88 1014.26 1014.55 1014.54 1014.99 1015.30 1015.78 1016.29
Wind_Speed
8 3 3 4 2 3 3 3 5 4 4 5 5 5 5 4 8 9 7 10 10 9
7 5 3 3 4 2 4 4 6 5 5 5 6 8 10 7 9 10 9 9 9 9
6 5 5 5 4 4 4 5 8 7 8 8 8 10 10 8 10 11 8 7 11 10
5 3 6 6 5 5 3 6 8 9 8 8 8 10 9 9 10 11 10 8 9 12
5 5 7 7 5 6 7 6 6 8 8 7 8 8 10 11 10 11 12 10 10 10
5 6 5 6 8 5 6 7 6 6 6 7 6 7 10 9 10 8 10 10 10 10
5 7 5 5 7 6 7 6 7 4 5 8 6 6 9 9 9 9 9 9 10 10
5 5 5 5 5 11 9 6 6 5 2 8 10 6 10 9 8 9 11 9 9 9
6 5 5 6 5 6 5 7 7 7 8 7 6 6 12 11 7 7 8 9 8 6
7 7 6 6 5 4 5 5 9 9 8 6 6 11 10 12 8 8 7 10 11 10
10 9 7 7 6 5 4 5 6 8 7 6 4 10 10 10 7 6 7 7 7 8
12 11 8 7 8 6 4 4 4 6 8 7 4 6 9 5 6 6 5 8 6 7
12 11 10 7 8 6 5 5 4 5 7 9 5 1 4 5 2 6 4 6 6 8
10 10 9 8 6 6 5 6 5 6 6 7 8 6 5 5 2 4 5 5 4 4
Wind_Direction
96 94 42 77 63 22 43 74 120 138 151 181 172 142 141 136 101 103 103 105 112 106
117 114 120 113 98 50 68 98 90 113 117 122 135 138 119 113 111 98 92 93 99 106
120 148 149 161 124 93 58 109 104 93 114 117 128 126 112 113 111 99 93 93 105 107
110 105 84 87 94 101 57 108 101 104 102 119 112 127 117 110 113 112 111 110 107 112
111 88 94 100 98 95 79 61 77 106 112 111 128 140 131 135 136 134 130 131 126 122
115 95 95 116 118 125 95 86 90 86 115 119 130 145 133 126 128 125 125 130 133 130
126 134 138 142 137 132 112 101 93 112 100 132 148 136 126 130 127 130 135 136 124 127
139 151 147 133 109 132 131 138 134 119 118 94 120 145 134 125 137 131 133 137 127 149
171 166 132 109 114 110 117 132 128 88 80 69 72 63 116 122 126 110 116 136 141 137
183 155 143 142 133 108 111 98 106 95 86 71 59 44 76 111 110 118 130 143 145 158
178 161 169 152 132 108 92 92 107 114 107 94 66 46 46 108 112 119 135 139 120 120
181 162 172 162 141 139 135 124 126 126 124 114 108 62 56 77 101 106 115 88 90 134
181 165 170 160 151 151 163 157 178 138 138 140 138 144 86 44 103 119 104 103 88 50
170 161 161 149 151 155 174 172 210 151 145 142 145 175 188 103 355 147 147 138 138 112